Dallas Love Field
KDAL : now visible

Airfield :











YOU CAN JOIN US ON...

 
LOGIN :

Register | Disclaimer

   EN    FR    IT 

 









Legend :    VFR   Marginal VFR   IFR   Intensive IFR   Very Intensive IFR
Visi :
Ceiling :
>= 8 km
>= 3000ft
5 to 8 km
1000 to 3000 ft
1500m to 5 km
500 to 1000 ft
800 to 1500m
200 to 500 ft
< 800m
< 200 ft
Symbols :   Thunderstorms  Fog  Heavy snow  Heavy precipitations  Wind > 20 kt







- Airport Elevation : 487 ft
- IATA code : DAL


KDAL - Dallas Love Field

CURRENT METAR :
  • 162253Z 09007G14KT 10SM FEW080 34/18 A2994 RMK AO2 SLP131 MDT CU W-NW AND DSNT NE SE T03390178

EXPIRED METARs :
  • 162153Z 12009KT 10SM SCT070 35/18 A2995 RMK AO2 SLP132 MDT CU E SW AND DSNT NE T03500178
  • 162053Z 10010G16KT 10SM SCT070 36/18 A2996 RMK AO2 SLP137 MDT CU SE-SW-W T03560178 58024

TAF KDAL
Valid from the 16 at 21:00 until the 17 at 18:00 UTC


162106Z 1621/1718 11008KT P6SM SCT060
No reported NOTAMs for that airfield.



MET'MAP, your aeronautical weather chart ! - Copyright ORBIFLY December 2007 - Disclaimer

ORBIFLY MET'MAP TEAM :

Programming & Development : Alexandra Zaïnal
Concept & Development : Baudouin d'Aumeries
Co-Development & Prog : Marc-Olivier Méhu
Technical & hardware support : Manuel Goepfert

Contact : metmap@orbifly.com




SOURCES & CREDITS :

   NOAA       Earth
Advisory